Location: Dodge City Community College Clyde Tombaugh Astronomy Center
(37.7756°N, 100.0412°W)
Time: 21:18:17
(UTC+00:00)

N. Korean satellite - Pass Details

Date: 09 December 2022
Orbit: 407 x 442 km, 97.3° (Epoch: 04 February)

Event Time Altitude Azimuth Distance (km) Brightness Sun altitude
Rises 11:09:35 0° 29° (NNE) 2,483 10.4 -29.7°
Reaches altitude 10° 11:12:07 10° 49° (NE) 1,592 9.6 -29.2°
Maximum altitude 11:14:33 18° 94° (E) 1,167 9.2 -28.7°
Drops below altitude 10° 11:16:55 10° 140° (SE) 1,560 9.7 -28.3°
Sets 11:19:22 0° 160° (SSE) 2,410 10.5 -27.8°
